User: anonymous   Login
Location: Unspecified
(0.0000°N, 0.0000°E)
Time: 23:33:45
(UTC+00:00)
Language:

EDRS-C - Orbit

View from above orbital plane
View from above orbital plane
View from above satellite
View from above satellite

Ground track
Ground track

The orbit data is extracted from the following two-line orbital elements,

1 44475U 19049A   19264.86417777  .00000123  00000-0  00000+0 0  9991
2 44475   0.0716 307.8152 0000480 235.6216 149.4400  1.00273937   535
Epoch (UTC): 21 September 2019 20:44:24
Eccentricity: 0.0000480
inclination: 0.0716°
perigee height: 35783 km
apogee height: 35787 km
right ascension of ascending node: 307.8152°
argument of perigee: 235.6216°
revolutions per day: 1.00273937
mean anomaly at epoch: 149.4400°
orbit number at epoch: 53

The dashed part of the orbit path shows where the satellite is in the earth's shadow,  

DLR